Find Starlink 32705

NORAD ID: 62479 Int'l Des: 2024-254 Owner: SPXS Country: US Constellation: starlink operational
LEOCIRCULAR

Live Position

Loading 3D Globe...

About Starlink 32705

Description loading...

Upcoming Passes

Passes for default location (London). Set your location on the main map for personalized predictions.

Altitude History

Loading altitude history...

Two-Line Element Set

1 62479U 24254T 26122.19585039 .00034323 00000-0 12502-2 0 9995
2 62479 43.0005 66.6173 0001618 266.8906 93.1760 15.27599909 75761
Epoch: May 2, 2026 • Age: 15 hours

Current Status

Altitude 486.5 km
Velocity 7.63 km/s
Sub-Earth Point 40.54°N, 27.26°E
Launch Date Dec 31, 2024
Age 1.3 years
Type internet

Technical Details

Classification Payload
Mass 730.00 kg
Dry Mass 700.00 kg
Total Mass 730.00 kg
Length 0.30 m
Diameter 4.10 m
Span 29.00 m
Shape Box + pan
Manufacturer SPXS
Bus Type Starlink V2M
Phase Status In Orbit
Owner/State SPXS/US

Most Searched